Погода в Ижевске

Погода в Ижевске : погода сейчас, прогноз погоды и архив. Всё, что Вы хотите узнать о погоде в Ижевске!

Хотите узнать прогноз погоды в Ижевске? Тогда Вам сюда: Погода в Ижевске

Поиск расширенной информации на нашем сайте:

Другие новости

Новости СМИ2

Главная страница сайта

Новости сайта

03.07.2017

Напоминаем, что на нашем специализированном сайте Метеоцентр.Азия вы можете получить высокодетализированные автоматические прогнозы погоды по пунктам России, СНГ и мира в авиационном формате (включающие направление и скорость ветра, видимость, явления погоды, количество и форму облачности, нижнюю и верхнюю границу облачности).

Рекомендуем: биографии мастеров спорта, ашихара.

Погода в Ижевске - сегодня

Время (UTC), дата Ветер
(°,м/с) 
Видим.   Явления Облачность Т
(°С)
Тd
(°С)
f(%) Тe
(°С)
Pmin
(гПа)
dP
(гПа)
Po
(мм)
O2
(г/м3)
Тmin Tmax R s Состояние
почвы
21 23.07.17 тихо () -2{03}  10 км  слаб. ливневой дождь  9/5 1000 м кучево-дожд., средняя 
[Cb calv|Ac und]
+16 +14 88 +23  1007.3  -1.5  741  279           
00 24.07.17 тихо () -3{05}  10 км  в посл. час ливневой дождь  9/4 1000 м кучево-дожд., средняя 
[Cb calv|Ac und]
+15.5 +13.5 88 +22  1004.7  -2.5  739  279           
03 24.07.17 160 (Ю) 2-3{06}  10 км    10/10 300 м 
[Sc]
+15.9 +15.6 98 +27  1004.6  -0.1  739  278  +15    10    мокрая 
06 24.07.17 240 (ЮЗ) 4-6{08}  10 км    9/8 600 м кучево-дожд., средняя 
[Cb cap|Ac trans]
+16 +13.9 87 +23  1003.9  -0.7  739  278           
09 24.07.17 260 (З) 4-6{09}  10 км    9/6 1000 м кучево-дожд., средняя 
[Cb cap|Ac trans]
+17.9 +11.8 67 +22  1004.5  0.8  739  277           
12 24.07.17 270 (З) 5-7{09}  10 км  {ливн. осадки}  8/6 1000 м кучево-дожд., средняя 
[Cb calv|Ac trans]
+18.5 +11.8 65 +23  1005  0.5  740  277           
15 24.07.17 250 (З) 3-5{07}  10 км  в посл. час ливневой дождь  8/4 1000 м кучево-дожд., средняя 
[Cb calv|Ac trans]
+17.2 +12.5 74 +23  1005.3  0.2  740  278    +19.5  0.1     
18 24.07.17 210 (ЮЗ) 2-4{07}  10 км  {ливн. осадки}  6/3 1000 м кучево-дожд., средняя 
[Cb calv|Ac trans]
+14.7 +13 90 +21  1005.1  -0.4  740  280           
21 24.07.17 190 (Ю) 2-4{05}  10 км    9/0 средняя 
[Ac trans]
+13.3 +12 92 +18  1004.4  -0.8  739  282           
00 25.07.17 180 (Ю) 3-4{05}  10 км  слаб. дождь  9/3 1000 м средняя 
[Sc|Ac trans]
+13 +12.1 94 +17  1002.7  -1.7  738  281           
03 25.07.17 200 (Ю) 4-6{10}  10 км  слаб. дождь  10/10 200 м 
[Frnb|Ns]
+13.4 +13 97 +19  1000.9  -1.6  737  280  +12.8      мокрая 
06 25.07.17 200 (Ю) 2-4{08}  10 км  в посл. час дождь  9/8 600 м средняя 
[Sc|Ac trans]
+15.2 +14.1 93 +24  1000.6  -0.3  736  278           
09 25.07.17 230 (ЮЗ) 4-6{10}  10 км  в посл. час ливневой дождь  9/8 1000 м кучево-дожд., средняя 
[Cb calv|Ac trans]
+17.9 +12.3 70 +23  1000.7  0.5  737  276           
12 25.07.17 310 (СЗ) 5-6{11}  10 км  {ливн. осадки, дождь}  6/3 1000 м средняя, верхняя 
[Cu med, cong|Ac trans|Ci fib]
+18.8 +12 65 +23  1002.1  1.2  738  276           
15 25.07.17 290 (З) 3-5{09}  10 км    6/4 1000 м средняя 
[Cu med, cong|Ac trans]
+18 +13 73 +25  1003.3  1.2  739  277    +20     
18 25.07.17 280 (З) 1-2{05}  10 км    3/0 средняя, верхняя 
[Ac trans|Ci fib]
+14.6 +13.1 91 +22  1004.6  739  280           
21 25.07.17 тихо () -1{03}  10 км    3/0 средняя 
[Ac trans]
+12.6 +12.2 97 +17  1004.6  -0.1  739  282           
00 26.07.17 тихо () -1{02}  10 км    9/3 1000 м средняя 
[Sc|Ac trans]
+12.4 +11.7 95 +16  1004.5  -0.1  739  283           
03 26.07.17 200 (Ю) 1-2{03}  10 км    9/6 1000 м средняя 
[Sc|Ac trans]
+13.9 +13.3 96 +21  1004.7  0.3  739  281  +12.3        мокрая 
06 26.07.17 260 (З) 3-4{06}  10 км    10/6 300 м средняя 
[Sc|As op]
+16 +14.6 91 +24  1004.1  -0.5  739  278           
09 26.07.17 240 (ЮЗ) 4-5{07}  10 км  слаб. дождь  10/6 600 м средняя 
[Sc|Ac As]
+18 +14.7 81 +27  1003.6  -0.3  739  276           
12 26.07.17 230 (ЮЗ) 5-6{08}  4000 м  слаб. дождь  10/8 300 м средняя 
[Sc|Ac As]
+16.9 +16 94 +28  1002.8  -0.9  738  277           
15 26.07.17 290 (З) 4-6{09}  10 км  в посл. час ливневой дождь  10/6 600 м кучево-дожд., средняя 
[Cb cap|As op]
+18.6 +17.3 92 +32  1002.5  -0.2  738  274    +20.1  14     
18 26.07.17 310 (СЗ) 2-3{06}  10 км  {ливн. осадки, дождь}  8/0 средняя, верхняя 
[Ac trans|Ci fib]
+15.2 +14.7 97 +25  1004.7  739  279           
21 26.07.17 тихо () -2{03}  10 км    6/0 верхняя 
[Ci fib]
+12.9 +12 94 +17  1006.1  1.2  740  282           
Время (UTC), дата Ветер
(°,м/с) 
Видим.   Явления Облачность Т
(°С)
Тd
(°С)
f(%) Тe
(°С)
Pmin
(гПа)
dP
(гПа)
Po
(мм)
O2
(г/м3)
Тmin Tmax R s Состояние
почвы

Для получения пояснительной информации подведите курсор к названию столбца.

ПОГОДА в Ижевске - архив

Всё, что Вы хотите узнать о погоде в Ижевске - удобно и подробно!

Выберите нужную дату (начиная с 1 января 2015* года) и нажмите кнопку "Найти".
Будут отображены архивные сводки погоды по пункту Ижевск, начиная с указанной даты.


Отображать данные в формате CSV (для использования в таблицах Excel)


Внимание! Наш архив погоды предназначен исключительно для личного некоммерческого использования в познавательных целях. Если Вам необходимы официальные справки о состоянии погоды (для производственных, юридических, коммерческих и т.п. целей), обращайтесь в органы Росгидромета.

*Примечание: данная дата относится к архиву по метеостанциям СССР (Россия, СНГ, Балтия).
Архив по метеостанциям Зарубежной Европы и Азии (кроме Китая) хранится 10 дней, по другим регионам земного шара (Китай, Африка, Америка, Австралия, Океания) - 1 день.

Ижевск - район местоположения метеостанции


Название, широта, долгота, высота метеостанции:
Ижевск 56.8°ш. 53.4°д. 159 м над ур. моря [Российская Федерация]

Дополнительная информация

В oтличие oт бoльшинства пoгoдных сайтoв мы публикуем пoдрoбную метеoинфoрмацию в детальнoм прoфессиoнальнoм фoрмате.

Характеристики температуры и влажнoсти вoздуха измеряются на высoте 2 м в тени вдали oт зданий и деревьев.
Скoрoсть ветра измеряется на высoте 10 м (на урoвне рoста челoвека скoрoсть ветра ниже в 1.5-2 раза). Если метеoстанция нахoдится в гoрoде или в лесу, тo скoрoсть ветра занижена на 2-4 м/с пo сравнению с oткрытым местoм. Скoрoсть ветра над акватoриями крупных рек и oзёр, а также на вершинах хoлмoв на 2-5 м/с выше, чем в oбычных услoвиях.
Атмoсфернoе давление в разных тoчках местнoсти мoжет значительнo oтличаться oт давления на метеoстанции, в зависимoсти oт услoвий рельефа (при пoдъёме на 10 м давление пoнижается примернo на 1 мм рт.ст.).